ACA2341 CYHZ-CYOW

Flight info

Callsign ACA2341
Flight time N/A
Altitude 40000
Route KELNO Q806 PUPOV DCT VILRO RIVER4
Aircraft B38M/M-SDE1FGHILORVWXY/HB1

Departure

Time 2026-04-29 23:26
Airport Halifax / Stanfield International Airport (CYHZ)

Arrival

Time N/A
Airport Ottawa Macdonald-Cartier International Airport (CYOW)
Time Latitude Longitude Altitude Speed Heading
2026-04-29 23:01 44.88889 -63.51490 452 ft 0 kts 215°
2026-04-29 23:19 44.88893 -63.51486 447 ft 4 kts 216°
2026-04-29 23:19 44.88915 -63.51462 452 ft 4 kts 215°
2026-04-29 23:19 44.88937 -63.51444 452 ft 4 kts 197°
2026-04-29 23:19 44.88962 -63.51442 451 ft 4 kts 160°
2026-04-29 23:20 44.88978 -63.51457 451 ft 0 kts 126°
2026-04-29 23:21 44.88978 -63.51456 451 ft 1 kts 126°
2026-04-29 23:22 44.88972 -63.51445 451 ft 2 kts 125°
2026-04-29 23:22 44.88960 -63.51421 451 ft 4 kts 126°
2026-04-29 23:22 44.88948 -63.51382 452 ft 5 kts 97°
2026-04-29 23:22 44.88965 -63.51327 452 ft 8 kts 40°
2026-04-29 23:23 44.89003 -63.51291 452 ft 6 kts 34°
2026-04-29 23:23 44.89043 -63.51253 452 ft 8 kts 35°
2026-04-29 23:23 44.89104 -63.51241 451 ft 12 kts 324°
2026-04-29 23:23 44.89178 -63.51354 450 ft 19 kts 306°
2026-04-29 23:24 44.89259 -63.51519 450 ft 22 kts 301°
2026-04-29 23:24 44.89298 -63.51682 450 ft 13 kts 322°
2026-04-29 23:24 44.89335 -63.51680 450 ft 0 kts 42°
2026-04-29 23:24 44.89337 -63.51675 449 ft 0 kts 55°
2026-04-29 23:25 44.89330 -63.51658 449 ft 4 kts 127°
2026-04-29 23:25 44.89329 -63.51655 449 ft 0 kts 126°
2026-04-29 23:25 44.89302 -63.51603 449 ft 30 kts 125°
2026-04-29 23:25 44.89017 -63.51031 452 ft 109 kts 125°
2026-04-29 23:26 44.88467 -63.49930 641 ft 153 kts 124°
2026-04-29 23:26 44.87825 -63.48644 1340 ft 167 kts 124°
2026-04-29 23:26 44.87159 -63.47366 2434 ft 167 kts 126°
2026-04-29 23:26 44.86382 -63.45963 2998 ft 196 kts 127°
2026-04-29 23:27 44.85819 -63.44122 3709 ft 219 kts 97°
2026-04-29 23:27 44.86073 -63.41909 4487 ft 244 kts 68°
2026-04-29 23:27 44.87169 -63.39970 5305 ft 267 kts 39°
2026-04-29 23:27 44.88888 -63.38949 6506 ft 273 kts 11°
2026-04-29 23:28 44.90815 -63.38896 7491 ft 282 kts 359°
2026-04-29 23:28 44.92802 -63.39049 8443 ft 289 kts 359°
2026-04-29 23:28 44.94828 -63.39191 9461 ft 294 kts 358°
2026-04-29 23:28 44.96867 -63.39315 10380 ft 302 kts 358°
2026-04-29 23:29 44.99020 -63.39430 10956 ft 319 kts 358°
2026-04-29 23:29 45.01294 -63.39551 11621 ft 332 kts 358°
2026-04-29 23:29 45.03618 -63.39678 12554 ft 335 kts 359°
2026-04-29 23:29 45.05963 -63.39807 13460 ft 339 kts 358°
2026-04-29 23:30 45.08334 -63.39959 14293 ft 343 kts 355°
2026-04-29 23:30 45.10606 -63.40968 15083 ft 347 kts 328°
2026-04-29 23:30 45.12353 -63.43299 15817 ft 350 kts 302°
2026-04-29 23:30 45.13207 -63.46508 16548 ft 351 kts 276°
2026-04-29 23:31 45.13404 -63.49976 17259 ft 356 kts 276°
2026-04-29 23:31 45.13733 -63.53465 17992 ft 359 kts 277°
2026-04-29 23:31 45.14080 -63.56973 18692 ft 362 kts 277°
2026-04-29 23:31 45.14441 -63.60528 19317 ft 365 kts 277°
2026-04-29 23:32 45.14809 -63.64100 19939 ft 368 kts 277°
2026-04-29 23:32 45.15182 -63.67704 20544 ft 371 kts 277°
2026-04-29 23:32 45.15557 -63.71338 21146 ft 374 kts 277°
2026-04-29 23:32 45.15929 -63.74950 21739 ft 377 kts 277°
2026-04-29 23:33 45.16308 -63.78650 22330 ft 380 kts 277°
2026-04-29 23:33 45.16689 -63.82370 22896 ft 384 kts 277°
2026-04-29 23:33 45.17072 -63.86131 23464 ft 387 kts 277°
2026-04-29 23:33 45.17457 -63.89915 23984 ft 390 kts 277°
2026-04-29 23:34 45.17845 -63.93725 24461 ft 392 kts 277°
2026-04-29 23:34 45.18230 -63.97559 24944 ft 394 kts 277°
2026-04-29 23:34 45.18617 -64.01417 25392 ft 397 kts 277°
2026-04-29 23:34 45.19006 -64.05303 25860 ft 399 kts 276°
2026-04-29 23:35 45.19395 -64.09206 26304 ft 401 kts 276°
2026-04-29 23:35 45.19786 -64.13138 26725 ft 404 kts 276°
2026-04-29 23:35 45.20177 -64.17098 27157 ft 407 kts 276°
2026-04-29 23:35 45.20570 -64.21085 27567 ft 410 kts 276°
2026-04-29 23:36 45.20965 -64.25106 27972 ft 412 kts 276°
2026-04-29 23:36 45.21361 -64.29152 28369 ft 415 kts 276°
2026-04-29 23:36 45.21752 -64.33178 28750 ft 418 kts 276°
2026-04-29 23:36 45.22150 -64.37273 29144 ft 421 kts 276°
2026-04-29 23:37 45.22548 -64.41398 29532 ft 423 kts 276°
2026-04-29 23:37 45.22949 -64.45554 29909 ft 426 kts 276°
2026-04-29 23:37 45.23349 -64.49724 30255 ft 429 kts 276°
2026-04-29 23:37 45.23751 -64.53934 30561 ft 431 kts 276°
2026-04-29 23:38 45.24153 -64.58162 30869 ft 433 kts 276°
2026-04-29 23:38 45.24556 -64.62426 31171 ft 436 kts 276°
2026-04-29 23:38 45.24959 -64.66702 31474 ft 438 kts 277°
2026-04-29 23:38 45.25363 -64.70991 31779 ft 440 kts 277°
2026-04-29 23:39 45.25767 -64.75308 32079 ft 442 kts 277°
2026-04-29 23:39 45.26171 -64.79645 32375 ft 444 kts 277°
2026-04-29 23:39 45.26573 -64.83988 32692 ft 445 kts 277°
2026-04-29 23:39 45.26972 -64.88307 33055 ft 447 kts 277°
2026-04-29 23:40 45.27376 -64.92692 33417 ft 448 kts 277°
2026-04-29 23:40 45.27773 -64.97071 33861 ft 446 kts 277°
2026-04-29 23:40 45.28168 -65.01432 34265 ft 444 kts 277°
2026-04-29 23:40 45.28559 -65.05783 34638 ft 443 kts 277°
2026-04-29 23:41 45.28946 -65.10117 34990 ft 441 kts 277°
2026-04-29 23:41 45.29331 -65.14426 35322 ft 440 kts 277°
2026-04-29 23:41 45.29714 -65.18741 35645 ft 439 kts 277°
2026-04-29 23:41 45.30096 -65.23045 35974 ft 438 kts 277°
2026-04-29 23:42 45.30474 -65.27329 36311 ft 437 kts 277°
2026-04-29 23:42 45.30848 -65.31599 36639 ft 435 kts 277°
2026-04-29 23:42 45.31221 -65.35858 36948 ft 434 kts 277°
2026-04-29 23:42 45.31591 -65.40101 37249 ft 433 kts 277°
2026-04-29 23:43 45.31836 -65.42912 37446 ft 432 kts 277°
2026-04-29 23:43 45.32327 -65.48563 37822 ft 430 kts 277°
2026-04-29 23:43 45.32568 -65.51352 37994 ft 429 kts 277°
2026-04-29 23:43 45.32931 -65.55557 38265 ft 429 kts 277°
2026-04-29 23:44 45.33291 -65.59763 38514 ft 428 kts 277°
2026-04-29 23:44 45.33649 -65.63954 38755 ft 427 kts 277°
2026-04-29 23:44 45.34004 -65.68137 38940 ft 426 kts 277°
2026-04-29 23:44 45.34358 -65.72319 39099 ft 426 kts 277°
2026-04-29 23:45 45.34710 -65.76499 39239 ft 426 kts 277°
2026-04-29 23:45 45.35061 -65.80683 39390 ft 426 kts 277°
2026-04-29 23:45 45.35410 -65.84855 39523 ft 426 kts 277°
2026-04-29 23:45 45.35758 -65.89040 39664 ft 426 kts 276°
2026-04-29 23:46 45.36104 -65.93221 39790 ft 426 kts 276°
2026-04-29 23:46 45.36449 -65.97399 39917 ft 426 kts 276°
2026-04-29 23:46 45.36792 -66.01577 40051 ft 425 kts 276°
2026-04-29 23:46 45.37133 -66.05753 40141 ft 425 kts 276°
2026-04-29 23:47 45.37807 -66.14051 40128 ft 425 kts 276°
2026-04-29 23:47 45.38479 -66.22406 40137 ft 425 kts 276°
2026-04-29 23:48 45.39144 -66.30757 40129 ft 425 kts 276°
2026-04-29 23:48 45.39803 -66.39114 40133 ft 424 kts 276°
2026-04-29 23:49 45.40455 -66.47459 40129 ft 424 kts 276°
2026-04-29 23:49 45.41101 -66.55801 40134 ft 424 kts 276°
2026-04-29 23:50 45.41740 -66.64142 40118 ft 424 kts 276°
2026-04-29 23:51 45.42682 -66.76585 40120 ft 423 kts 275°
2026-04-29 23:51 45.43306 -66.84932 40113 ft 423 kts 275°
2026-04-29 23:52 45.43923 -66.93257 40112 ft 422 kts 275°
2026-04-29 23:52 45.44532 -67.01575 40107 ft 422 kts 275°
2026-04-29 23:53 45.45135 -67.09884 40113 ft 422 kts 275°
2026-04-29 23:53 45.45728 -67.18142 40099 ft 421 kts 275°
2026-04-29 23:54 45.46319 -67.26448 40106 ft 421 kts 275°
2026-04-29 23:54 45.46903 -67.34752 40098 ft 421 kts 275°
2026-04-29 23:55 45.47481 -67.43049 40103 ft 421 kts 275°
2026-04-29 23:55 45.48052 -67.51353 40097 ft 421 kts 274°
2026-04-29 23:56 45.48617 -67.59644 40104 ft 420 kts 274°
2026-04-29 23:56 45.49518 -67.67834 40097 ft 421 kts 278°
2026-04-29 23:57 45.50461 -67.76068 40102 ft 421 kts 277°
2026-04-29 23:57 45.51384 -67.84307 40091 ft 421 kts 277°
2026-04-29 23:58 45.52298 -67.92543 40092 ft 421 kts 277°
2026-04-29 23:58 45.53207 -68.00787 40084 ft 421 kts 277°
2026-04-29 23:59 45.54110 -68.09027 40091 ft 421 kts 277°
2026-04-29 23:59 45.55007 -68.17276 40089 ft 421 kts 277°
2026-04-30 00:00 45.55899 -68.25532 40081 ft 421 kts 277°
2026-04-30 00:00 45.56783 -68.33779 40079 ft 420 kts 277°
2026-04-30 00:01 45.57663 -68.42039 40079 ft 421 kts 277°
2026-04-30 00:01 45.58529 -68.50245 40065 ft 420 kts 275°
2026-04-30 00:02 45.58923 -68.58552 40066 ft 420 kts 272°
2026-04-30 00:02 45.59329 -68.66877 40069 ft 420 kts 272°
2026-04-30 00:03 45.59742 -68.75202 40068 ft 420 kts 272°
2026-04-30 00:03 45.60151 -68.83526 40068 ft 421 kts 272°
2026-04-30 00:04 45.60555 -68.91861 40067 ft 420 kts 272°
2026-04-30 00:04 45.60952 -69.00197 40063 ft 420 kts 272°
2026-04-30 00:05 45.61343 -69.08526 40062 ft 421 kts 272°
2026-04-30 00:05 45.61728 -69.16857 40047 ft 420 kts 272°
2026-04-30 00:06 45.62107 -69.25198 40034 ft 420 kts 272°
2026-04-30 00:06 45.62480 -69.33535 40028 ft 421 kts 272°
2026-04-30 00:07 45.62847 -69.41873 40017 ft 420 kts 272°
2026-04-30 00:07 45.63207 -69.50201 40008 ft 420 kts 272°
2026-04-30 00:08 45.63562 -69.58531 40001 ft 420 kts 271°
2026-04-30 00:08 45.63910 -69.66859 39997 ft 420 kts 271°
2026-04-30 00:09 45.64252 -69.75181 39997 ft 420 kts 271°
2026-04-30 00:09 45.64588 -69.83504 39988 ft 420 kts 271°
2026-04-30 00:10 45.64917 -69.91832 39984 ft 420 kts 271°
2026-04-30 00:10 45.65239 -70.00105 39982 ft 419 kts 271°
2026-04-30 00:11 45.65557 -70.08428 39976 ft 419 kts 271°
2026-04-30 00:11 45.65868 -70.16746 39973 ft 420 kts 271°
2026-04-30 00:12 45.66174 -70.25090 39971 ft 420 kts 271°
2026-04-30 00:12 45.66474 -70.33430 39959 ft 420 kts 271°
2026-04-30 00:13 45.66771 -70.41772 39960 ft 420 kts 271°
2026-04-30 00:13 45.67061 -70.50118 39949 ft 421 kts 270°
2026-04-30 00:14 45.67333 -70.58471 39942 ft 421 kts 270°
2026-04-30 00:14 45.67603 -70.66836 39939 ft 421 kts 270°
2026-04-30 00:15 45.67867 -70.75169 39929 ft 421 kts 270°
2026-04-30 00:15 45.67805 -70.83514 39927 ft 419 kts 263°
2026-04-30 00:16 45.67296 -70.91837 39916 ft 420 kts 263°
2026-04-30 00:16 45.66764 -71.00162 39913 ft 420 kts 263°
2026-04-30 00:17 45.66224 -71.08481 39911 ft 420 kts 263°
2026-04-30 00:17 45.65677 -71.16817 39911 ft 421 kts 263°
2026-04-30 00:18 45.65123 -71.25141 39909 ft 421 kts 263°
2026-04-30 00:18 45.64564 -71.33472 39895 ft 421 kts 263°
2026-04-30 00:19 45.63999 -71.41796 39886 ft 421 kts 263°
2026-04-30 00:19 45.63427 -71.50116 39883 ft 421 kts 263°
2026-04-30 00:20 45.63409 -71.58492 39880 ft 422 kts 269°
2026-04-30 00:20 45.63459 -71.66832 39876 ft 423 kts 268°
2026-04-30 00:21 45.63475 -71.75248 39867 ft 423 kts 268°
2026-04-30 00:21 45.63481 -71.83660 39872 ft 423 kts 268°
2026-04-30 00:22 45.63481 -71.92086 39870 ft 423 kts 268°
2026-04-30 00:22 45.63475 -72.00497 39864 ft 424 kts 268°
2026-04-30 00:23 45.63463 -72.08919 39855 ft 423 kts 268°
2026-04-30 00:23 45.63445 -72.17332 39850 ft 423 kts 268°
2026-04-30 00:24 45.63420 -72.25749 39845 ft 423 kts 268°
2026-04-30 00:24 45.63389 -72.34158 39843 ft 423 kts 268°
2026-04-30 00:25 45.63352 -72.42562 39838 ft 423 kts 268°
2026-04-30 00:25 45.63309 -72.50905 39836 ft 423 kts 268°
2026-04-30 00:26 45.63260 -72.59321 39839 ft 423 kts 268°
2026-04-30 00:26 45.63205 -72.67734 39833 ft 424 kts 267°
2026-04-30 00:27 45.63143 -72.76157 39832 ft 424 kts 267°
2026-04-30 00:27 45.63076 -72.84463 39830 ft 424 kts 267°
2026-04-30 00:28 45.63002 -72.92891 39826 ft 424 kts 267°
2026-04-30 00:28 45.62922 -73.01302 39603 ft 421 kts 267°
2026-04-30 00:28 45.62879 -73.05503 38943 ft 423 kts 267°
2026-04-30 00:29 45.62835 -73.09718 38320 ft 424 kts 267°
2026-04-30 00:29 45.62805 -73.12501 37912 ft 422 kts 266°
2026-04-30 00:29 45.62759 -73.16677 37322 ft 419 kts 266°
2026-04-30 00:29 45.62696 -73.22167 36569 ft 415 kts 266°
2026-04-30 00:30 45.62647 -73.26275 36012 ft 411 kts 266°
2026-04-30 00:30 45.62614 -73.29027 35661 ft 409 kts 266°
2026-04-30 00:30 45.62564 -73.33017 35176 ft 404 kts 265°
2026-04-30 00:30 45.62512 -73.37019 34712 ft 400 kts 265°
2026-04-30 00:31 45.62460 -73.40964 34238 ft 395 kts 265°
2026-04-30 00:31 45.62408 -73.44866 33767 ft 391 kts 264°
2026-04-30 00:31 45.62355 -73.48722 33228 ft 387 kts 264°
2026-04-30 00:31 45.62301 -73.52542 32752 ft 382 kts 264°
2026-04-30 00:32 45.62246 -73.56301 32325 ft 376 kts 264°
2026-04-30 00:32 45.62191 -73.60019 31905 ft 371 kts 264°
2026-04-30 00:32 45.62135 -73.63683 31481 ft 367 kts 264°
2026-04-30 00:32 45.62079 -73.67312 31069 ft 363 kts 264°
2026-04-30 00:33 45.62025 -73.70737 30684 ft 359 kts 264°
2026-04-30 00:33 45.61968 -73.74292 30286 ft 356 kts 264°
2026-04-30 00:33 45.61910 -73.77795 29898 ft 352 kts 264°
2026-04-30 00:33 45.61852 -73.81293 29453 ft 349 kts 264°
2026-04-30 00:34 45.61793 -73.84734 29075 ft 345 kts 264°
2026-04-30 00:34 45.61734 -73.88149 28704 ft 341 kts 264°
2026-04-30 00:34 45.61680 -73.91230 28372 ft 337 kts 264°
2026-04-30 00:34 45.61621 -73.94547 28012 ft 333 kts 263°
2026-04-30 00:35 45.61577 -73.97852 27489 ft 334 kts 264°
2026-04-30 00:35 45.61552 -74.01193 26897 ft 338 kts 264°
2026-04-30 00:35 45.61524 -74.04560 26412 ft 338 kts 264°
2026-04-30 00:35 45.61494 -74.07927 25873 ft 341 kts 264°
2026-04-30 00:36 45.61462 -74.11335 25309 ft 345 kts 264°
2026-04-30 00:36 45.61429 -74.14777 24731 ft 349 kts 264°
2026-04-30 00:36 45.61394 -74.18260 24151 ft 353 kts 264°
2026-04-30 00:36 45.61358 -74.21780 23565 ft 357 kts 264°
2026-04-30 00:37 45.61320 -74.25342 22893 ft 361 kts 264°
2026-04-30 00:37 45.61281 -74.28913 22247 ft 356 kts 264°
2026-04-30 00:37 45.61242 -74.32412 21676 ft 348 kts 264°
2026-04-30 00:37 45.61202 -74.35838 21125 ft 341 kts 264°
2026-04-30 00:38 45.61163 -74.39160 20573 ft 337 kts 264°
2026-04-30 00:38 45.61122 -74.42493 20003 ft 334 kts 264°
2026-04-30 00:38 45.61082 -74.45789 19454 ft 329 kts 264°
2026-04-30 00:38 45.61040 -74.49032 18922 ft 324 kts 263°
2026-04-30 00:39 45.60747 -74.52165 18318 ft 316 kts 252°
2026-04-30 00:39 45.60298 -74.55212 17770 ft 311 kts 254°
2026-04-30 00:39 45.59887 -74.58229 17237 ft 309 kts 254°
2026-04-30 00:39 45.59486 -74.61258 16828 ft 308 kts 254°
2026-04-30 00:40 45.59102 -74.64215 16944 ft 300 kts 254°
2026-04-30 00:40 45.58727 -74.67141 17005 ft 300 kts 254°
2026-04-30 00:40 45.58353 -74.70069 16996 ft 300 kts 254°
2026-04-30 00:40 45.57979 -74.72999 17006 ft 300 kts 254°